Location: Peebles
(55.6412°N, 3.1714°W)
Time: 02:07:07
(UTC+01:00)

FENGYUN 1C DEB - Pass Details

Date: 12 July 2022
Orbit: 580 x 1160 km, 99.3° (Epoch: 11 August)

Event Time Altitude Azimuth Distance (km) Brightness Sun altitude
Exits shadow 01:18:26 16° 187° (S) 2,338 ? -12.4°
Maximum altitude 01:23:24 54° 261° (W) 1,285 ? -12.4°
Drops below altitude 10° 01:30:14 10° 337° (NNW) 3,039 ? -12.3°
Sets 01:33:01 0° 342° (NNW) 4,033 ? -12.3°
